Santa Ana, CA

8:04 AM PDT on July 28, 2017 (GMT -0700)
John Wayne-Orange County

Weather History for KSNA - April, 2012

Change the Weather History Date:

Friday, April 20, 2012

  Actual Average Record
Temperature  
Mean Temperature 65 °F 62 °F  
Max Temperature 74 °F 69 °F 98 °F (2009)
Min Temperature 56 °F 54 °F 50 °F (2005)
Degree Days  
Heating Degree Days 0 4  
Month to date heating degree days 80 89  
Since 1 July heating degree days 1070 1176  
Cooling Degree Days 0 1  
Month to date cooling degree days 3 2  
Year to date cooling degree days 26 17  
Growing Degree Days 14 (Base 50)    
Moisture  
Dew Point 55 °F    
Average Humidity 75    
Maximum Humidity 93    
Minimum Humidity 57    
Precipitation  
Precipitation 0.00 in 0.04 in 0.23 in (2007)
Month to date precipitation 0.79 0.58  
Year to date precipitation 3.59 8.34  
Since 1 July precipitation 6.04  
Snow  
Snow 0.00 in - - ()
Month to date snowfall 0.0  
Year to date snowfall 0.0  
Snow Depth 0.00 in    
Sea Level Pressure  
Sea Level Pressure 29.95 in    
Wind  
Wind Speed 5 mph (SW)    
Max Wind Speed 14 mph    
Max Gust Speed 18 mph    
Visibility 5 miles    
Events      
T = Trace of Precipitation, MM = Missing Value Source: NWS Daily Summary

Daily Weather History Graph

Daily Weather History Graph

Search for Another Location

Airport or City:

Trip Planner

Search our weather history database for the weather conditions in past years. The results will help you decide how hot, cold, wet, or windy it might be!

Date:

Astronomy

Apr. 20, 2012 Rise Set
Actual Time 6:14 AM PDT 7:26 PM PDT
Civil Twilight 5:48 AM PDT 7:52 PM PDT
Nautical Twilight 5:17 AM PDT 8:23 PM PDT
Astronomical Twilight 4:45 AM PDT 8:55 PM PDT
Moon 5:40 AM PDT (4/20) 7:14 PM PDT (4/20)
Length of Visible Light 14h 04m
Length of Day
13h 12m
Waning Crescent, 0% of the Moon is Illuminated
Apr 20
Waning Crescent
Apr 21
New
Apr 29
First Quarter
May 5
Full
May 12
Last Quarter

Hourly Weather History & Observations

Time (PDT) Temp. Dew Point Humidity Pressure Visibility Wind Dir Wind Speed Gust Speed Precip Events Conditions
12:53 AM 59.0 °F 54.0 °F 83% 29.97 in 9.0 mi Calm Calm - N/A   Clear
1:53 AM 57.9 °F 53.1 °F 84% 29.96 in 8.0 mi WSW 3.5 mph - N/A   Clear
2:53 AM 55.9 °F 53.1 °F 90% 29.95 in 6.0 mi South 3.5 mph - N/A   Clear
3:22 AM 55.4 °F 53.6 °F 94% 29.95 in 6.0 mi SSW 3.5 mph - N/A   Mostly Cloudy
3:36 AM 57.2 °F 53.6 °F 88% 29.94 in 6.0 mi WSW 3.5 mph - N/A   Overcast
3:50 AM 57.2 °F 53.6 °F 88% 29.95 in 5.0 mi SSW 3.5 mph - N/A   Overcast
3:53 AM 57.0 °F 54.0 °F 89% 29.95 in 6.0 mi Calm Calm - N/A   Overcast
4:53 AM 57.9 °F 54.0 °F 87% 29.94 in 5.0 mi Calm Calm - N/A   Overcast
5:53 AM 57.9 °F 54.0 °F 87% 29.95 in 3.0 mi NW 3.5 mph - N/A   Overcast
6:53 AM 57.9 °F 54.0 °F 87% 29.96 in 3.0 mi North 3.5 mph - N/A   Overcast
7:53 AM 59.0 °F 54.0 °F 83% 29.97 in 3.0 mi Calm Calm - N/A   Mostly Cloudy
8:51 AM 60.8 °F 55.4 °F 82% 29.97 in 4.0 mi Calm Calm - N/A   Haze
8:53 AM 61.0 °F 55.0 °F 81% 29.97 in 4.0 mi Calm Calm - N/A   Haze
9:20 AM 64.4 °F 55.4 °F 73% 29.96 in 4.0 mi Calm Calm - N/A   Haze
9:53 AM 66.0 °F 55.9 °F 70% 29.97 in 4.0 mi West 3.5 mph - N/A   Haze
10:53 AM 71.1 °F 57.0 °F 61% 29.97 in 5.0 mi WSW 4.6 mph - N/A   Haze
11:53 AM 71.1 °F 57.0 °F 61% 29.96 in 6.0 mi SSW 9.2 mph - N/A   Haze
12:53 PM 71.1 °F 57.0 °F 61% 29.95 in 6.0 mi SSW 9.2 mph - N/A   Haze
1:53 PM 73.0 °F 57.9 °F 59% 29.93 in 6.0 mi SW 8.1 mph - N/A   Haze
2:53 PM 69.1 °F 57.0 °F 65% 29.93 in 6.0 mi SSW 10.4 mph - N/A   Haze
3:53 PM 66.9 °F 57.0 °F 70% 29.92 in 6.0 mi WSW 6.9 mph - N/A   Haze
4:39 PM 64.4 °F 57.2 °F 77% 29.92 in 5.0 mi SSW 12.7 mph - N/A   Haze
4:53 PM 64.0 °F 55.9 °F 75% 29.92 in 5.0 mi SSW 12.7 mph - N/A   Haze
5:00 PM 62.6 °F 55.4 °F 77% 29.92 in 5.0 mi SSW 12.7 mph - N/A   Haze
5:53 PM 61.0 °F 55.9 °F 83% 29.93 in 4.0 mi SSW 10.4 mph - N/A   Overcast
6:53 PM 60.8 °F 55.4 °F 82% 29.93 in 3.0 mi SSW 9.2 mph - N/A   Overcast
7:53 PM 60.1 °F 55.9 °F 86% 29.94 in 4.0 mi SW 5.8 mph - N/A   Mostly Cloudy
8:06 PM 60.8 °F 55.4 °F 82% 29.94 in 4.0 mi South 5.8 mph - N/A   Mostly Cloudy
8:46 PM 60.8 °F 55.4 °F 82% 29.95 in 4.0 mi SSW 8.1 mph - N/A   Mostly Cloudy
8:53 PM 60.1 °F 55.9 °F 86% 29.96 in 4.0 mi SSW 6.9 mph - N/A   Overcast
9:10 PM 60.8 °F 55.4 °F 82% 29.96 in 4.0 mi South 6.9 mph - N/A   Overcast
9:53 PM 60.1 °F 55.9 °F 86% 29.97 in 4.0 mi South 3.5 mph - N/A   Overcast
10:53 PM 60.1 °F 55.9 °F 86% 29.98 in 4.0 mi SW 3.5 mph - N/A   Overcast
11:53 PM 60.1 °F 55.9 °F 86% 29.97 in 5.0 mi SW 3.5 mph - N/A   Overcast